CW9414 Weather Reports


Display with metric or nautical units.
time (UTC)temp
F
wind
direction
speed
MPH
gust
MPH
rain 1hr
in
rain 24hr
in
rain mn
in
humidity
%
barometer
mb
20260507214504 0 0 0.0 0.0 0.00 0.00 0.00 100 1008.9
20260507213504 0 0 0.0 0.0 0.00 0.00 0.00 100 1008.9
20260507212504 0 0 0.0 0.0 0.00 0.00 0.00 100 1009.0
20260507211503 0 0 0.0 0.0 0.00 0.00 0.00 100 1009.2
20260507210504 0 0 0.0 0.0 0.00 0.00 0.00 100 1009.2
20260507205504 0 0 0.0 0.0 0.00 0.00 0.00 100 1009.2
20260507204504 0 0 0.0 0.0 0.00 0.00 0.00 100 1009.4
20260507203508 0 0 0.0 0.0 0.00 0.00 0.00 100 1009.4
20260507202507 0 0 0.0 0.0 0.00 0.00 0.00 100 1009.5
20260507201505 0 0 0.0 0.0 0.00 0.00 0.00 100 1009.5
20260507200504 0 0 0.0 0.0 0.00 0.00 0.00 100 1009.5
20260507195504 0 0 0.0 0.0 0.00 0.00 0.00 100 1009.5
20260507194503 0 0 0.0 0.0 0.00 0.00 0.00 100 1009.8
20260507193504 0 0 0.0 0.0 0.00 0.00 0.00 100 1009.8
20260507192504 0 0 0.0 0.0 0.00 0.00 0.00 100 1010.4
20260507191504 0 0 0.0 0.0 0.00 0.00 0.00 100 1010.6
20260507190505 0 0 0.0 0.0 0.00 0.00 0.00 100 1010.6
20260507185504 0 0 0.0 0.0 0.00 0.00 0.00 100 1010.8
20260507184507 0 0 0.0 0.0 0.00 0.00 0.00 100 1011.0
20260507183504 0 0 0.0 0.0 0.00 0.00 0.00 100 1011.0
20260507182504 0 0 0.0 0.0 0.00 0.00 0.00 100 1011.0
20260507120414 67 25 1.0 4.0 0.00 0.00 0.00 81 1010.7
20260507115414 67 28 0.0 3.0 0.00 0.00 0.00 81 1010.7
20260507114411 67 28 0.0 5.0 0.00 0.00 0.00 81 1009.9
20260507113410 67 10 1.0 4.0 0.00 0.00 0.00 81 1009.9
20260507112413 67 25 1.0 7.0 0.00 0.00 0.00 81 1009.7
20260507111414 67 17 0.0 5.0 0.00 0.00 0.00 81 1009.7
20260507110413 67 16 2.0 4.0 0.00 0.00 0.00 81 1009.7
20260507105410 67 15 1.0 7.0 0.00 0.00 0.00 81 1009.6
20260507104414 67 15 0.0 2.0 0.00 0.00 0.00 81 1009.6
20260507103410 67 15 0.0 3.0 0.00 0.00 0.00 81 1009.6
20260507102410 67 15 0.0 4.0 0.00 0.00 0.00 81 1009.6
20260507101410 67 15 2.0 3.0 0.00 0.00 0.00 81 1009.4
20260507100411 67 13 0.0 4.0 0.00 0.00 0.00 81 1009.4
20260507095410 67 13 1.0 3.0 0.00 0.00 0.00 81 1009.2
20260507094414 67 13 0.0 2.0 0.00 0.00 0.00 80 1009.0
20260507093410 67 13 1.0 3.0 0.00 0.00 0.00 80 1009.0
20260507092410 67 20 0.0 4.0 0.00 0.00 0.00 80 1008.6
20260507091410 67 20 0.0 1.0 0.00 0.00 0.00 80 1008.8
20260507090410 67 20 1.0 5.0 0.00 0.00 0.00 79 1008.8
20260507085410 67 17 0.0 4.0 0.00 0.00 0.00 79 1009.1
20260507084410 67 17 0.0 3.0 0.00 0.00 0.00 79 1009.2
20260507083410 67 12 0.0 2.0 0.00 0.00 0.00 79 1009.2
20260507082410 67 12 2.0 4.0 0.00 0.00 0.00 79 1009.1
20260507081410 67 11 1.0 4.0 0.00 0.00 0.00 78 1009.0
20260507080410 67 13 2.0 3.0 0.00 0.00 0.00 78 1009.0
20260507075410 67 29 1.0 10.0 0.00 0.00 0.00 78 1009.0
20260507074410 67 25 1.0 6.0 0.00 0.00 0.00 78 1009.3
20260507073413 67 15 3.0 3.0 0.00 0.00 0.00 78 1009.3
20260507072410 67 15 0.0 2.0 0.00 0.00 0.00 78 1009.4
20260507071410 68 18 0.0 6.0 0.00 0.00 0.00 78 1009.6
20260507070409 68 19 1.0 7.0 0.00 0.00 0.00 78 1009.6
20260507065410 68 22 3.0 7.0 0.00 0.00 0.00 77 1009.5
20260507064410 68 0 2.0 5.0 0.00 0.00 0.00 78 1009.5
20260507063410 68 5 1.0 5.0 0.00 0.00 0.00 77 1009.5
20260507062410 68 5 0.0 3.0 0.00 0.00 0.00 77 1009.6
20260507061410 68 5 2.0 5.0 0.00 0.00 0.00 77 1009.0
20260507060410 68 338 2.0 4.0 0.00 0.00 0.00 77 1009.0
20260507055410 69 324 2.0 4.0 0.00 0.00 0.00 77 1009.1
20260507054411 69 323 1.0 4.0 0.00 0.00 0.00 77 1009.0
20260507053410 69 325 1.0 7.0 0.00 0.00 0.00 76 1009.0
20260507052410 69 16 0.0 3.0 0.00 0.00 0.00 76 1008.7
20260507051413 69 18 1.0 5.0 0.00 0.00 0.00 76 1009.1
20260507050413 70 17 1.0 4.0 0.00 0.00 0.00 76 1009.1
20260507045410 70 17 0.0 6.0 0.00 0.00 0.00 76 1009.1
20260507044409 70 338 0.0 5.0 0.00 0.00 0.00 75 1009.0
20260507043410 70 340 0.0 7.0 0.00 0.00 0.00 75 1009.0
20260507042410 71 286 3.0 6.0 0.00 0.00 0.00 74 1008.7
20260507041409 71 23 0.0 9.0 0.00 0.00 0.00 74 1009.0
20260507040413 71 331 2.0 7.0 0.00 0.00 0.00 73 1009.0
20260507035409 72 286 2.0 5.0 0.00 0.00 0.00 73 1009.0
20260507034410 72 323 6.0 6.0 0.00 0.00 0.00 73 1008.6
20260507033410 72 0 1.0 7.0 0.00 0.00 0.00 73 1008.6
20260507032409 73 281 3.0 9.0 0.00 0.00 0.00 73 1008.2
20260507031413 73 11 1.0 8.0 0.00 0.00 0.00 73 1007.9
20260507030409 73 317 0.0 4.0 0.00 0.00 0.00 73 1007.9
20260507025410 73 309 0.0 4.0 0.00 0.00 0.00 73 1007.7
20260507024410 74 308 2.0 6.0 0.00 0.00 0.00 73 1007.5
20260507023409 74 339 2.0 4.0 0.00 0.00 0.00 73 1007.5
20260507022410 74 339 2.0 6.0 0.00 0.00 0.00 72 1007.0
20260507021410 74 340 2.0 4.0 0.00 0.00 0.00 72 1006.9
20260507020409 75 9 3.0 6.0 0.00 0.00 0.00 72 1006.9
20260507015409 75 327 0.0 6.0 0.00 0.00 0.00 73 1006.6
20260507014410 75 280 1.0 3.0 0.00 0.00 0.00 73 1006.5
20260507013409 75 37 1.0 5.0 0.00 0.00 0.00 73 1006.5
20260507012409 76 310 0.0 4.0 0.00 0.00 0.00 72 1006.1
20260507011410 77 15 0.0 7.0 0.00 0.00 0.00 72 1006.0
20260507010413 77 286 2.0 7.0 0.00 0.00 0.00 72 1006.0
20260507005410 78 35 0.0 10.0 0.00 0.00 0.00 72 1005.6
20260507004409 79 333 4.0 5.0 0.00 0.00 0.00 71 1005.4
20260507003409 80 325 0.0 7.0 0.00 0.00 0.00 70 1005.4
20260507002409 82 334 0.0 5.0 0.00 0.00 0.00 68 1005.1
20260507001410 84 304 2.0 6.0 0.00 0.00 0.00 66 1004.6
20260507000410 86 213 0.0 3.0 0.00 0.00 0.00 69 1004.7
20260506235409 87 213 2.0 4.0 0.00 0.00 0.00 66 1004.5
20260506234409 87 213 0.0 1.0 0.00 0.00 0.00 66 1004.5
20260506233409 87 213 1.0 2.0 0.00 0.00 0.00 66 1004.5
20260506232413 87 213 1.0 2.0 0.00 0.00 0.00 65 1004.4
20260506231413 88 213 1.0 2.0 0.00 0.00 0.00 65 1004.2
20260506230409 88 213 0.0 2.0 0.00 0.00 0.00 65 1004.2
20260506225410 88 213 1.0 2.0 0.00 0.00 0.00 65 1004.1
20260506224409 88 213 3.0 4.0 0.00 0.00 0.00 64 1004.3
20260506223410 89 213 0.0 3.0 0.00 0.00 0.00 64 1004.3
20260506222410 89 213 1.0 3.0 0.00 0.00 0.00 63 1004.1
20260506221409 89 214 1.0 2.0 0.00 0.00 0.00 63 1004.1
20260506220409 89 214 2.0 3.0 0.00 0.00 0.00 63 1004.1
20260506215409 89 186 3.0 6.0 0.00 0.00 0.00 63 1004.1